Flag for U.S.A. Weather past 2 weeks in Brockton, Massachusetts, U.S.A.

Now
28 °F

Chilly.


Feels Like: 19 °F
Forecast: 30 / 46 °F
Wind: 10 mph from Southwest

Location: East Milton

Current Time: Mar 30, 2015 at 2:06:55 AM

Latest Report: Mar 30, 2015 at 12:54 AM


Visibility: N/A

Pressure: 30.09 "Hg

Humidity: 66%

Dew point: 18 °F

Location of BrocktonLocation

Historic Weather in Brockton — Graph

°F

Brockton temperature yesterday

Maximum temperature yesterday: 39 °F (at 4:54 PM)
Minimum temperature yesterday: 21 °F (at 3:54 AM)
Average temperature yesterday: 30 °F

Past Weeks' High & Low Weather Summary

 TemperatureHumidityPressure
High53 °F (Mar 26, 6:54 PM)100% (Mar 17, 8:54 AM)30.43 "Hg (Mar 17, 8:54 AM)
Low14 °F (Mar 23, 2:54 AM)22% (Mar 16, 4:54 PM)29.38 "Hg (Mar 17, 4:54 PM)
Average30 °F62%30.01 "Hg
* Reported Mar 16 2:54 PM — Mar 30 12:54 AM, Brockton, Weather by CustomWeather, © 2015

Note: Actual official high and low records may vary slightly from our data, if they occured in-between our weather recording intervals... More about our weather records

Advertising

Brockton weather history for previous 24 hours

 ConditionsComfort  
Time TempWeatherWind HumidityBarometerVisibility
12:54 AM
Mon, Mar 30
28 °FChilly.10 mph66%30.09 "HgN/A
11:54 PM
Sun, Mar 29
29 °FChilly.12 mph64%30.10 "HgN/A
10:54 PM29 °FChilly.10 mph66%30.11 "HgN/A
9:54 PM30 °FChilly.12 mph59%30.14 "HgN/A
8:54 PM34 °FChilly.12 mph29%30.14 "HgN/A
7:54 PM36 °FChilly.9 mph27%30.14 "HgN/A
6:54 PM37 °FChilly.8 mph25%30.13 "HgN/A
5:54 PM38 °FChilly.12 mph26%30.12 "HgN/A
4:54 PM39 °FChilly.6 mph28%30.12 "HgN/A
3:54 PM38 °FChilly.9 mph29%30.13 "HgN/A
2:54 PM37 °FChilly.12 mph26%30.16 "HgN/A
1:54 PM36 °FChilly.3 mph27%30.17 "HgN/A
12:54 PM34 °FChilly.9 mph29%30.19 "HgN/A
11:54 AM33 °FChilly.5 mph30%30.20 "HgN/A
10:54 AM31 °FChilly.7 mph38%30.22 "HgN/A
9:54 AM28 °FChilly.9 mph45%30.22 "HgN/A
8:54 AM25 °FChilly.7 mph53%30.20 "HgN/A
7:54 AM22 °FCold.10 mph60%30.18 "HgN/A
6:54 AM22 °FCold.8 mph62%30.15 "HgN/A
5:54 AM22 °FCold.10 mph62%30.12 "HgN/A
4:54 AM22 °FCold.13 mph62%30.10 "HgN/A
3:54 AM21 °FCold.10 mph65%30.08 "HgN/A
2:54 AM22 °FCold.14 mph66%30.07 "HgN/A
Weather by CustomWeather, © 2015

See weather overviewHow to use our weather pages